Flag for India Weather past 2 weeks in Madurai, Tamil Nadu, India

Now
86 °F

Scattered clouds.


Feels Like: 97 °F
Forecast: 75 / 92 °F
Wind: 6 mph from East

Location: Tiruchchirapalli

Current Time: Apr 21, 2015 at 9:40:43 AM

Latest Report: Apr 21, 2015 at 9:10 AM


Visibility: 2 mi

Pressure: 29.86 "Hg

Humidity: 75%

Dew point: 77 °F

Location of MaduraiLocation

Historic Weather in Madurai — Graph

°F

Madurai temperature yesterday

Maximum temperature yesterday: 97 °F (at 3:10 PM)
Minimum temperature yesterday: 79 °F (at 4:10 AM)
Average temperature yesterday: 87 °F

Past Weeks' High & Low Weather Summary

 TemperatureHumidityPressure
High104 °F (Apr 6, 2:40 PM)100% (Apr 13, 2:40 AM)29.98 "Hg (Apr 13, 2:40 AM)
Low70 °F (Apr 18, 2:40 AM)29% (Apr 6, 3:40 PM)29.65 "Hg (Apr 6, 3:40 PM)
Average87 °F66%29.83 "Hg
* Reported Apr 6 7:40 AM — Apr 21 8:10 AM, Madurai, Weather by CustomWeather, © 2015

Note: Actual official high and low records may vary slightly from our data, if they occured in-between our weather recording intervals... More about our weather records

Advertising

Madurai weather history for previous 24 hours

 ConditionsComfort  
Time TempWeatherWind HumidityBarometerVisibility
8:10 AM
Tue, Apr 21
82 °FFog.3 mph84%29.86 "Hg2 mi
7:40 AM82 °FFog.5 mph84%29.86 "Hg2 mi
7:10 AM81 °FFog.5 mph89%29.83 "Hg2 mi
6:40 AM81 °FFog.2 mph89%29.83 "Hg2 mi
6:10 AM81 °FFog.2 mph89%29.83 "Hg2 mi
5:40 AM81 °FFog.2 mph89%29.83 "Hg3 mi
4:40 AM82 °FPassing clouds.2 mph84%29.83 "Hg4 mi
4:10 AM82 °FPassing clouds.3 mph84%29.83 "Hg4 mi
3:40 AM82 °FPassing clouds.3 mph84%29.83 "Hg4 mi
3:10 AM82 °FPassing clouds.3 mph84%29.83 "Hg4 mi
2:40 AM82 °FPassing clouds.3 mph84%29.83 "Hg4 mi
2:10 AM82 °FPassing clouds.3 mph79%29.86 "Hg4 mi
1:40 AM82 °FPartly cloudy.3 mph79%29.86 "Hg4 mi
1:10 AM82 °FPartly cloudy.2 mph79%29.86 "Hg4 mi
12:40 AM84 °FPartly cloudy.3 mph74%29.86 "Hg4 mi
12:10 AM84 °FPassing clouds.3 mph74%29.86 "Hg4 mi
11:40 PM
Mon, Apr 20
84 °FPassing clouds.5 mph74%29.89 "Hg4 mi
11:10 PM84 °FPassing clouds.7 mph74%29.89 "Hg4 mi
10:40 PM84 °FPassing clouds.7 mph74%29.89 "Hg4 mi
10:10 PM84 °FPassing clouds.10 mph74%29.89 "Hg4 mi
9:40 PM86 °FPassing clouds.12 mph70%29.86 "Hg4 mi
9:10 PM86 °FPassing clouds.13 mph70%29.86 "Hg4 mi
8:40 PM88 °FPassing clouds.14 mph66%29.83 "Hg4 mi
8:10 PM88 °FPassing clouds.13 mph62%29.83 "Hg4 mi
7:40 PM90 °FPassing clouds.13 mph59%29.80 "Hg4 mi
7:10 PM90 °FPassing clouds.9 mph59%29.77 "Hg4 mi
6:40 PM91 °FScattered clouds.7 mph56%29.77 "Hg4 mi
6:10 PM93 °FScattered clouds.9 mph49%29.74 "Hg4 mi
5:40 PM95 °FScattered clouds.5 mph44%29.74 "Hg4 mi
5:10 PM95 °FScattered clouds.6 mph50%29.74 "Hg4 mi
4:40 PM97 °FScattered clouds.7 mph44%29.74 "Hg4 mi
4:10 PM97 °FScattered clouds.7 mph44%29.74 "Hg4 mi
3:40 PM97 °FScattered clouds.5 mph44%29.74 "Hg4 mi
3:10 PM97 °FScattered clouds.6 mph44%29.74 "Hg4 mi
2:40 PM95 °FScattered clouds.7 mph50%29.77 "Hg4 mi
2:10 PM93 °FScattered clouds.5 mph56%29.77 "Hg4 mi
1:40 PM93 °FScattered clouds.7 mph56%29.80 "Hg4 mi
1:10 PM93 °FScattered clouds.3 mph56%29.80 "Hg4 mi
12:40 PM93 °FScattered clouds.3 mph56%29.83 "Hg4 mi
12:10 PM91 °FScattered clouds.3 mph59%29.86 "Hg4 mi
11:40 AM91 °FScattered clouds.5 mph59%29.86 "Hg4 mi
11:10 AM90 °FScattered clouds.2 mph63%29.86 "Hg4 mi
10:40 AM88 °FScattered clouds.3 mph66%29.86 "Hg4 mi
10:10 AM88 °FScattered clouds.2 mph66%29.86 "Hg4 mi
9:40 AM86 °FScattered clouds.3 mph75%29.89 "Hg3 mi
9:10 AM86 °FScattered clouds.3 mph75%29.86 "Hg3 mi
Weather by CustomWeather, © 2015

See weather overviewHow to use our weather pages